TimeMST,TemperatureF,Dew PointF,Humidity,Sea Level PressureIn,VisibilityMPH,Wind Direction,Wind SpeedMPH,Gust SpeedMPH,PrecipitationIn,Events,Conditions,WindDirDegrees,DateUTC
12:15 AM,26.6,26.6,100,30.08,10.0,West,4.6,-,N/A,,Scattered Clouds,280,2013-03-03 07:15:00
12:35 AM,26.6,24.8,93,30.07,10.0,NW,4.6,-,N/A,,Scattered Clouds,310,2013-03-03 07:35:00
1:15 AM,26.6,26.6,100,30.05,10.0,Calm,Calm,-,N/A,,Clear,0,2013-03-03 08:15:00
1:35 AM,26.6,24.8,93,30.04,10.0,NW,4.6,-,N/A,,Scattered Clouds,320,2013-03-03 08:35:00
1:55 AM,26.6,24.8,93,30.03,10.0,NNW,4.6,-,N/A,,Scattered Clouds,330,2013-03-03 08:55:00
2:15 AM,26.6,24.8,93,30.03,10.0,WNW,3.5,-,N/A,,Scattered Clouds,290,2013-03-03 09:15:00
2:35 AM,26.6,26.6,100,30.01,10.0,WNW,5.8,-,N/A,,Clear,300,2013-03-03 09:35:00
2:55 AM,26.6,26.6,100,30.00,10.0,NW,3.5,-,N/A,,Scattered Clouds,310,2013-03-03 09:55:00
3:15 AM,26.6,24.8,93,29.99,10.0,South,3.5,-,N/A,,Scattered Clouds,180,2013-03-03 10:15:00
3:35 AM,26.6,24.8,93,29.98,10.0,Calm,Calm,-,N/A,,Scattered Clouds,0,2013-03-03 10:35:00
3:55 AM,26.6,24.8,93,29.97,10.0,NW,5.8,-,N/A,,Mostly Cloudy,320,2013-03-03 10:55:00
4:15 AM,26.6,26.6,100,29.97,10.0,Calm,Calm,-,N/A,,Overcast,0,2013-03-03 11:15:00
4:35 AM,26.6,26.6,100,29.97,10.0,Calm,Calm,-,N/A,,Overcast,0,2013-03-03 11:35:00
4:55 AM,28.4,26.6,93,29.97,10.0,WNW,4.6,-,N/A,,Overcast,290,2013-03-03 11:55:00
5:15 AM,28.4,26.6,93,29.97,10.0,Calm,Calm,-,N/A,,Overcast,0,2013-03-03 12:15:00
5:35 AM,28.4,26.6,93,29.96,10.0,West,3.5,-,N/A,,Overcast,260,2013-03-03 12:35:00
5:55 AM,28.4,26.6,93,29.95,10.0,NW,3.5,-,N/A,,Overcast,310,2013-03-03 12:55:00
6:15 AM,28.4,26.6,93,29.95,10.0,Calm,Calm,-,N/A,,Overcast,0,2013-03-03 13:15:00
6:35 AM,28.4,28.4,100,29.95,7.0,Calm,Calm,-,N/A,Snow,Light Snow,0,2013-03-03 13:35:00
6:55 AM,28.4,28.4,100,29.95,10.0,Calm,Calm,-,N/A,,Overcast,0,2013-03-03 13:55:00
7:15 AM,28.4,28.4,100,29.94,10.0,Calm,Calm,-,N/A,,Overcast,0,2013-03-03 14:15:00
7:35 AM,28.4,28.4,100,29.93,10.0,Calm,Calm,-,N/A,,Mostly Cloudy,0,2013-03-03 14:35:00
7:55 AM,30.2,28.4,93,29.93,10.0,NE,4.6,-,N/A,,Mostly Cloudy,50,2013-03-03 14:55:00
8:15 AM,30.2,28.4,93,29.92,10.0,Calm,Calm,-,N/A,,Mostly Cloudy,0,2013-03-03 15:15:00
8:35 AM,30.2,28.4,93,29.92,10.0,SE,3.5,-,N/A,,Mostly Cloudy,130,2013-03-03 15:35:00
8:55 AM,30.2,28.4,93,29.91,10.0,East,3.5,-,N/A,,Overcast,100,2013-03-03 15:55:00
9:15 AM,32.0,28.4,87,29.90,10.0,East,4.6,-,N/A,,Overcast,90,2013-03-03 16:15:00
9:35 AM,32.0,28.4,87,29.90,10.0,East,3.5,-,N/A,,Overcast,90,2013-03-03 16:35:00
9:55 AM,33.8,30.2,87,29.89,10.0,East,4.6,-,N/A,,Overcast,90,2013-03-03 16:55:00
10:15 AM,33.8,30.2,87,29.88,10.0,East,4.6,-,N/A,,Overcast,80,2013-03-03 17:15:00
10:35 AM,33.8,30.2,87,29.87,10.0,East,5.8,-,N/A,,Mostly Cloudy,100,2013-03-03 17:35:00
10:55 AM,35.6,30.2,81,29.86,10.0,East,4.6,-,N/A,,Scattered Clouds,90,2013-03-03 17:55:00
11:15 AM,35.6,30.2,81,29.85,10.0,SE,4.6,-,N/A,,Mostly Cloudy,140,2013-03-03 18:15:00
11:35 AM,37.4,30.2,75,29.84,10.0,South,8.1,-,N/A,,Overcast,170,2013-03-03 18:35:00
11:55 AM,35.6,30.2,81,29.84,10.0,SSE,6.9,-,N/A,,Overcast,160,2013-03-03 18:55:00
12:15 PM,37.4,30.2,75,29.83,10.0,SSW,6.9,-,N/A,,Overcast,210,2013-03-03 19:15:00
12:35 PM,37.4,30.2,75,29.82,10.0,SW,6.9,-,N/A,,Overcast,220,2013-03-03 19:35:00
12:55 PM,37.4,30.2,75,29.80,10.0,SSW,3.5,-,N/A,,Overcast,210,2013-03-03 19:55:00
1:15 PM,37.4,30.2,75,29.80,10.0,West,8.1,-,N/A,,Overcast,260,2013-03-03 20:15:00
1:35 PM,37.4,28.4,70,29.79,10.0,West,13.8,-,N/A,,Mostly Cloudy,270,2013-03-03 20:35:00
1:55 PM,39.2,30.2,70,29.77,10.0,West,15.0,-,N/A,,Scattered Clouds,270,2013-03-03 20:55:00
2:15 PM,37.4,28.4,70,29.77,10.0,West,16.1,26.5,N/A,,Mostly Cloudy,270,2013-03-03 21:15:00
2:35 PM,37.4,26.6,65,29.77,10.0,West,18.4,29.9,N/A,,Scattered Clouds,260,2013-03-03 21:35:00
2:55 PM,39.2,28.4,65,29.78,10.0,West,17.3,24.2,N/A,,Scattered Clouds,270,2013-03-03 21:55:00
3:15 PM,41.0,28.4,61,29.78,10.0,West,18.4,-,N/A,,Scattered Clouds,280,2013-03-03 22:15:00
3:35 PM,39.2,26.6,61,29.78,10.0,West,16.1,21.9,N/A,,Scattered Clouds,260,2013-03-03 22:35:00
3:55 PM,37.4,26.6,65,29.79,10.0,West,16.1,21.9,N/A,,Scattered Clouds,270,2013-03-03 22:55:00
4:15 PM,37.4,26.6,65,29.79,10.0,West,16.1,23.0,N/A,,Overcast,270,2013-03-03 23:15:00
4:35 PM,37.4,26.6,65,29.79,10.0,West,12.7,21.9,N/A,,Mostly Cloudy,280,2013-03-03 23:35:00
4:55 PM,35.6,26.6,70,29.79,10.0,WNW,12.7,-,N/A,,Mostly Cloudy,290,2013-03-03 23:55:00
5:35 PM,35.6,26.6,70,29.79,10.0,WNW,6.9,-,N/A,,Mostly Cloudy,290,2013-03-04 00:35:00
5:55 PM,33.8,24.8,70,29.80,10.0,West,12.7,-,N/A,,Mostly Cloudy,270,2013-03-04 00:55:00
6:15 PM,32.0,23.0,69,29.80,10.0,West,6.9,17.3,N/A,,Scattered Clouds,270,2013-03-04 01:15:00
6:35 PM,32.0,23.0,69,29.80,10.0,West,5.8,-,N/A,,Clear,270,2013-03-04 01:35:00
6:55 PM,32.0,23.0,69,29.80,10.0,WNW,6.9,-,N/A,,Scattered Clouds,300,2013-03-04 01:55:00
7:15 PM,32.0,23.0,69,29.81,10.0,NW,8.1,-,N/A,,Mostly Cloudy,310,2013-03-04 02:15:00
7:35 PM,32.0,21.2,64,29.81,10.0,WNW,15.0,-,N/A,,Mostly Cloudy,290,2013-03-04 02:35:00
7:55 PM,32.0,19.4,60,29.80,10.0,West,23.0,32.2,N/A,,Mostly Cloudy,270,2013-03-04 02:55:00
8:15 PM,32.0,19.4,60,29.80,10.0,West,19.6,25.3,N/A,,Mostly Cloudy,270,2013-03-04 03:15:00
8:35 PM,32.0,19.4,60,29.80,10.0,West,11.5,19.6,N/A,,Mostly Cloudy,270,2013-03-04 03:35:00
8:55 PM,32.0,17.6,55,29.81,10.0,WNW,9.2,-,N/A,,Scattered Clouds,290,2013-03-04 03:55:00
9:15 PM,32.0,19.4,60,29.82,10.0,WNW,9.2,-,N/A,,Mostly Cloudy,290,2013-03-04 04:15:00
9:35 PM,30.2,23.0,75,29.82,10.0,North,5.8,-,N/A,,Overcast,360,2013-03-04 04:35:00
9:55 PM,28.4,24.8,86,29.82,5.0,NNW,15.0,20.7,N/A,Snow,Light Snow,330,2013-03-04 04:55:00
10:15 PM,28.4,23.0,80,29.82,10.0,NW,13.8,-,N/A,,Mostly Cloudy,310,2013-03-04 05:15:00
10:35 PM,26.6,24.8,93,29.82,10.0,NW,15.0,-,N/A,Snow,Light Snow,310,2013-03-04 05:35:00
10:55 PM,26.6,23.0,86,29.83,10.0,NW,13.8,-,N/A,,Mostly Cloudy,320,2013-03-04 05:55:00
11:15 PM,26.6,21.2,80,29.84,10.0,NW,8.1,-,N/A,,Mostly Cloudy,310,2013-03-04 06:15:00
11:35 PM,26.6,21.2,80,29.85,10.0,NNW,17.3,20.7,N/A,Snow,Light Snow,330,2013-03-04 06:35:00
11:55 PM,26.6,19.4,74,29.85,10.0,NNW,11.5,-,N/A,,Overcast,330,2013-03-04 06:55:00